Total_Precipitation_Accumulation
0.11 0.25 0.61 1.00 1.66 2.35 2.06 1.39 0.81 0.63 0.56 0.66 0.75 0.72 0.81 0.93 1.33 2.07 2.13 1.88 1.63 1.82 2.15 2.60 2.75 2.33 2.07 2.07 2.05 2.11 2.26 2.24 2.26 2.33 2.38 2.45 2.64 2.89 3.09 3.09 2.86 2.71 2.60 2.49 2.63 2.74 2.60 2.47 2.23
0.21 0.46 0.78 1.20 2.03 2.31 1.82 1.54 0.79 0.61 0.58 0.61 0.65 0.71 0.76 0.69 0.66 1.13 1.87 1.75 1.49 1.58 1.77 2.15 2.52 2.22 1.91 1.97 2.01 2.14 2.19 2.15 2.18 2.26 2.34 2.51 2.79 2.99 2.99 2.80 2.63 2.57 2.43 2.34 2.36 2.47 2.33 2.07 1.92
0.30 0.58 0.88 1.28 1.42 1.43 1.18 1.01 0.65 0.58 0.55 0.65 0.69 0.66 0.68 0.91 0.88 1.24 1.57 1.43 1.48 1.55 1.71 2.19 2.48 2.30 2.10 2.07 2.14 2.12 2.06 2.06 2.20 2.37 2.56 2.84 2.89 2.91 2.76 2.55 2.41 2.29 2.15 2.15 2.17 2.32 2.25 2.02 1.92
0.34 0.62 0.84 0.90 0.76 0.69 0.62 0.55 0.41 0.50 0.47 0.56 0.66 0.66 0.80 0.93 0.88 1.20 1.40 1.44 1.46 1.59 1.76 2.03 2.28 2.21 2.14 2.00 2.00 2.10 2.18 2.23 2.37 2.37 2.52 2.72 2.69 2.70 2.54 2.28 2.13 2.05 1.91 1.91 2.06 2.26 2.27 2.06 1.97
0.41 0.68 0.87 0.73 0.54 0.51 0.50 0.43 0.38 0.47 0.45 0.59 0.72 0.89 1.15 1.14 0.97 1.24 1.42 1.43 1.41 1.48 1.69 1.81 2.16 2.31 2.24 2.13 2.16 2.21 2.23 2.30 2.35 2.28 2.36 2.40 2.44 2.48 2.29 2.02 1.97 1.94 1.75 1.75 2.09 2.30 2.23 1.97 1.89
0.47 0.69 0.64 0.49 0.46 0.44 0.43 0.34 0.32 0.41 0.50 0.59 0.77 1.06 1.51 1.60 1.35 1.30 1.31 1.23 1.31 1.45 1.59 1.72 2.08 2.32 2.39 2.30 2.31 2.28 2.30 2.40 2.32 2.22 2.26 2.17 2.04 2.14 2.06 1.85 1.84 1.83 1.79 1.93 2.22 2.30 2.11 1.91 1.88
0.57 0.67 0.43 0.30 0.34 0.40 0.38 0.28 0.28 0.32 0.46 0.69 0.87 1.16 1.69 2.08 1.72 1.38 1.35 1.40 1.54 1.51 1.57 1.87 2.13 2.15 2.18 2.43 2.43 2.40 2.37 2.47 2.43 2.27 2.19 2.05 1.85 1.81 1.76 1.81 1.87 1.81 1.97 2.19 2.39 2.35 2.18 1.94 1.94
0.28 0.33 0.30 0.25 0.21 0.33 0.35 0.26 0.25 0.32 0.42 0.62 0.80 1.10 1.75 1.79 1.51 1.44 1.67 1.79 1.95 1.81 1.68 1.85 2.01 1.92 1.85 1.99 2.27 2.31 2.19 2.17 2.22 2.23 2.12 2.16 2.08 1.90 1.86 1.84 1.90 1.98 2.11 2.46 2.61 2.51 2.34 2.04 2.01
0.16 0.23 0.22 0.18 0.16 0.24 0.25 0.24 0.26 0.29 0.37 0.61 0.79 1.05 1.39 1.34 1.28 1.34 1.93 2.13 2.19 2.04 1.93 1.83 1.75 1.71 1.70 1.62 1.88 2.15 2.21 2.18 2.22 2.26 2.20 2.26 2.36 2.12 2.15 2.09 2.34 2.43 2.42 2.73 2.96 2.97 2.69 2.36 2.20
0.12 0.14 0.11 0.09 0.11 0.16 0.21 0.27 0.27 0.32 0.53 0.93 1.25 1.29 1.25 1.25 1.38 1.59 2.04 2.05 2.21 2.27 2.03 1.96 1.86 1.67 1.49 1.46 1.77 2.12 2.00 2.10 2.26 2.43 2.36 2.43 2.68 2.75 2.22 2.48 2.95 3.11 3.14 3.27 3.47 3.53 2.97 2.48 2.30
0.08 0.10 0.07 0.08 0.12 0.16 0.19 0.27 0.30 0.36 0.79 1.26 1.72 1.56 1.37 1.48 1.60 1.86 2.28 2.51 2.49 2.60 2.34 2.24 2.07 1.80 1.54 1.69 1.60 1.82 2.05 2.28 2.43 2.42 2.42 2.53 2.41 2.35 2.33 2.70 3.19 3.39 3.39 3.37 3.57 3.48 2.93 2.90 3.02
0.06 0.08 0.10 0.13 0.15 0.18 0.24 0.29 0.36 0.47 0.76 0.89 1.12 1.37 1.50 1.68 1.92 2.18 2.36 2.60 2.61 2.72 2.59 2.63 2.30 2.17 2.19 1.98 1.68 1.58 1.65 1.89 2.23 2.55 2.50 2.63 2.91 2.92 2.84 3.01 3.12 3.35 3.54 3.84 3.57 3.61 3.42 3.36 3.19
0.05 0.08 0.11 0.13 0.14 0.17 0.22 0.25 0.37 0.52 0.60 0.66 0.97 1.34 1.68 1.81 2.09 2.40 2.50 2.79 2.69 2.68 2.71 2.80 2.64 2.47 2.52 2.26 2.01 1.78 1.91 1.93 2.06 2.33 2.57 2.67 3.07 3.36 3.29 3.21 3.25 3.24 3.22 3.36 3.42 3.32 3.61 3.78 3.37
0.04 0.07 0.08 0.10 0.13 0.16 0.20 0.26 0.37 0.53 0.65 0.82 1.05 1.34 1.67 1.98 2.19 2.35 2.78 2.95 3.01 2.93 3.00 2.85 2.83 2.81 2.77 2.65 2.58 2.49 2.23 2.33 2.29 2.34 2.42 2.61 3.04 3.46 3.58 3.45 3.37 3.16 3.05 3.13 3.25 3.38 3.81 3.78 3.61
0.06 0.10 0.11 0.13 0.15 0.16 0.24 0.43 0.57 0.70 0.74 0.89 1.09 1.25 1.61 2.14 2.38 2.41 2.76 2.92 2.86 3.25 3.31 3.32 3.29 3.43 3.38 3.20 3.07 2.84 2.63 2.51 2.54 2.67 2.76 2.73 2.91 3.28 3.29 3.14 3.01 2.97 3.03 3.22 3.24 3.43 3.63 3.34 3.37
0.08 0.20 0.26 0.23 0.20 0.19 0.30 0.67 0.75 0.82 0.79 0.98 1.17 1.34 1.66 1.98 2.31 2.45 2.75 2.95 3.04 3.43 3.63 3.81 3.76 3.81 3.66 3.66 3.62 3.33 3.08 2.91 2.78 2.75 2.81 2.66 2.69 2.87 3.18 2.98 2.86 3.14 3.12 3.25 3.54 3.69 3.63 3.60 3.63
0.14 0.18 0.23 0.24 0.18 0.18 0.26 0.57 0.71 0.85 1.05 1.21 1.39 1.54 1.59 1.88 2.20 2.55 2.83 3.18 3.46 3.82 4.12 4.35 4.36 4.23 3.96 3.99 3.95 3.77 3.63 3.34 2.99 2.83 2.77 2.65 2.65 2.80 3.15 3.18 3.27 3.30 3.42 3.45 3.26 3.70 3.78 3.70 3.73
0.14 0.16 0.20 0.22 0.18 0.19 0.35 0.59 0.69 0.90 1.16 1.20 1.46 1.63 1.71 1.78 2.23 2.69 2.90 3.31 3.78 4.30 4.72 4.59 4.56 4.77 4.63 4.47 4.35 4.06 3.60 3.17 3.02 2.99 2.82 2.69 2.77 2.89 3.33 3.21 3.19 3.25 3.46 3.57 3.53 3.68 3.73 3.47 3.45
0.09 0.13 0.18 0.21 0.18 0.23 0.39 0.64 0.91 1.06 1.36 1.31 1.33 1.50 1.63 1.75 2.06 2.49 2.80 3.33 3.93 4.37 4.78 4.96 5.01 4.91 4.74 4.40 4.09 3.86 3.61 3.40 3.14 2.95 2.85 2.77 2.70 2.91 3.40 3.19 3.47 3.40 3.42 3.47 3.51 3.67 3.58 3.27 3.46
0.10 0.14 0.17 0.22 0.21 0.29 0.49 0.71 1.03 1.04 1.12 1.19 1.11 1.19 1.39 1.74 2.01 2.53 2.85 3.05 3.48 4.01 4.47 4.80 4.98 4.86 4.47 4.13 3.98 3.88 3.83 3.43 3.15 3.13 3.26 3.07 3.08 3.13 3.18 3.42 3.37 3.41 3.58 3.54 3.51 3.68 3.45 3.08 3.35
0.13 0.15 0.17 0.17 0.23 0.41 0.55 1.02 1.27 1.12 1.07 1.09 1.10 1.20 1.39 1.83 2.30 2.59 2.80 2.92 3.17 3.57 3.87 3.98 4.17 4.13 3.97 4.02 4.05 4.02 4.04 3.63 3.56 3.57 3.57 3.36 3.35 3.36 3.36 3.35 3.27 3.29 3.13 3.24 3.33 3.36 3.37 3.30 3.23
0.16 0.14 0.12 0.14 0.25 0.52 0.61 1.29 1.68 1.39 1.25 1.34 1.39 1.37 1.64 1.93 1.98 2.20 2.49 2.76 2.93 3.16 3.47 3.69 3.75 3.70 3.63 3.75 3.83 3.74 3.56 3.45 3.61 3.89 3.82 3.54 3.32 3.19 3.01 2.96 3.14 3.16 2.96 3.03 2.68 2.86 3.07 3.07 2.92
0.13 0.13 0.14 0.19 0.29 0.51 0.65 1.02 1.56 1.52 1.64 1.61 1.49 1.55 1.82 1.81 1.71 1.84 2.05 2.38 2.50 2.83 3.11 3.31 3.56 3.65 3.59 3.67 3.67 3.71 3.55 3.54 3.60 3.61 3.67 3.47 3.28 2.97 2.63 2.66 2.89 2.85 2.75 2.66 2.56 2.76 2.61 2.53 2.61
0.12 0.16 0.26 0.35 0.50 0.89 0.72 0.80 1.37 1.50 1.42 1.41 1.40 1.38 1.55 1.51 1.49 1.72 1.90 2.20 2.37 2.50 2.64 2.74 2.96 3.22 3.40 3.44 3.41 3.46 3.42 3.41 3.38 3.37 3.27 3.07 2.91 2.71 2.40 2.29 2.47 2.58 2.62 2.57 2.53 2.61 2.51 2.55 2.69
0.11 0.25 0.70 1.08 1.25 1.24 0.66 0.78 1.29 1.20 1.12 1.12 1.24 1.28 1.29 1.23 1.22 1.46 1.63 1.80 2.02 2.13 2.25 2.39 2.67 3.01 3.10 3.06 3.02 3.13 3.21 3.23 3.18 3.16 3.02 2.81 2.58 2.36 2.30 2.29 2.39 2.41 2.47 2.35 2.39 2.44 2.48 2.67 2.76
0.14 0.22 0.62 0.95 1.04 1.03 0.83 1.22 1.62 1.18 1.03 1.05 1.14 1.16 1.09 1.02 0.98 1.13 1.40 1.72 1.90 1.89 1.96 2.12 2.42 2.68 2.71 2.64 2.79 3.05 3.12 3.16 3.09 3.13 2.81 2.56 2.37 2.31 2.39 2.36 2.21 2.16 2.26 2.14 2.42 2.34 2.41 2.65 2.73
0.16 0.19 0.28 0.46 0.55 0.84 1.09 1.36 1.35 0.86 0.80 0.88 0.96 1.00 1.11 1.07 0.99 1.07 1.17 1.40 1.53 1.60 1.67 1.82 2.24 2.51 2.60 2.68 2.80 2.92 3.03 3.00 2.97 2.89 2.62 2.36 2.37 2.32 2.44 2.38 2.27 2.17 2.27 2.38 2.66 2.61 2.55 2.77 2.77
0.16 0.19 0.24 0.35 0.60 0.92 1.14 1.42 1.51 1.06 0.85 0.65 0.63 0.74 0.81 0.83 0.84 0.92 0.97 1.09 1.20 1.38 1.65 1.84 1.98 2.28 2.39 2.48 2.63 2.66 2.90 2.82 2.67 2.63 2.41 2.16 2.06 2.12 2.30 2.42 2.35 2.27 2.32 2.51 2.71 2.70 2.84 3.01 3.04
0.18 0.18 0.19 0.26 0.39 0.69 1.20 1.39 1.04 0.85 0.71 0.67 0.67 0.77 0.80 0.78 0.75 0.81 0.94 1.08 1.18 1.32 1.54 1.67 1.70 1.89 2.05 2.18 2.39 2.39 2.41 2.48 2.55 2.38 2.11 2.01 2.01 2.07 2.14 2.32 2.39 2.34 2.39 2.52 2.59 2.55 2.86 3.00 3.03
0.18 0.16 0.19 0.26 0.27 0.40 0.74 1.02 0.72 0.75 0.73 0.66 0.73 0.84 0.91 0.88 0.81 0.86 1.03 1.16 1.24 1.38 1.43 1.48 1.55 1.76 1.94 2.12 2.33 2.39 2.37 2.41 2.45 2.30 2.10 2.04 2.06 2.11 2.11 2.23 2.28 2.18 2.20 2.42 2.44 2.48 2.76 2.93 2.82